Simultaneous Nadir Overpasses (SNOs) Predictions

Prediction of SNOs between METOP-B and NOAA-19 Satellite Orbit:

Table of predicted SNOs for the next 14.0 days since TLE Epoch: 4/8/2023
Index Date (METOP-B) Time (METOP-B) Lat,Lon (METOP-B) SZA (METOP-B ) Date (NOAA-19) Time (NOAA-19) Lat,Lon (NOAA-19) SZA (NOAA-19 ) Distance(km) Time Diff (sec)
1 04/16/2023 14:51:58 -80.93, 171.65 107.63 04/16/2023 14:51:02 -80.93, 171.66 107.65 0.18 56
2 04/16/2023 15:42:38 80.94, -20.79 72.40 04/16/2023 15:41:58 80.93, -20.91 72.36 2.25 40
3 04/16/2023 16:33:20 -80.92, 146.17 107.67 04/16/2023 16:33:01 -80.93, 146.25 107.66 1.73 19
4 04/16/2023 17:24:00 80.93, -46.28 72.35 04/16/2023 17:23:57 80.93, -46.32 72.35 0.77 3
5 04/16/2023 18:14:41 -80.93, 121.04 107.67 04/16/2023 18:14:59 -80.93, 121.22 107.64 3.05 18
6 04/16/2023 19:05:22 80.93, -71.76 72.31 04/16/2023 19:05:56 80.93, -71.73 72.33 0.80 34
7 04/16/2023 19:56:02 -80.94, 95.92 107.66 04/16/2023 19:56:58 -80.93, 95.81 107.66 2.23 56



Historial Predications of SNOs between METOP-B and NOAA-19
